FW1492 Weather Reports


time (UTC)temp
C
wind
direction
speed
KPH
gust
KPH
rain 1hr
cm
rain 24hr
cm
rain mn
cm
humidity
%
barometer
mb
20260509143019 12 213 1.6 4.8 0.00 0.05 0.05 84 1013.3
20260509141515 12 224 0.0 4.8 0.00 0.05 0.05 86 1013.1
20260509140011 11 184 0.0 3.2 0.00 0.05 0.05 86 1013.0
20260509134508 10 167 0.0 3.2 0.00 0.05 0.05 87 1013.3
20260509133004 10 199 0.0 3.2 0.00 0.05 0.05 87 1013.4
20260509131501 10 146 0.0 3.2 0.00 0.05 0.05 86 1013.5
20260509130100 10 141 0.0 4.8 0.00 0.05 0.05 86 1013.6
20260509124557 9 169 1.6 3.2 0.00 0.05 0.05 86 1013.6
20260509123057 9 161 1.6 3.2 0.00 0.05 0.05 86 1013.7
20260509121556 9 150 1.6 4.8 0.00 0.05 0.05 86 1013.9
20260509120154 9 168 1.6 4.8 0.00 0.05 0.05 85 1013.6
20260509114553 9 163 1.6 4.8 0.00 0.05 0.05 84 1013.4
20260509113053 8 142 0.0 1.6 0.00 0.05 0.05 83 1013.4
20260509111557 8 143 0.0 1.6 0.00 0.05 0.05 82 1013.6
20260509110051 8 151 1.6 3.2 0.00 0.05 0.05 82 1013.9
20260509104554 9 150 1.6 3.2 0.00 0.05 0.05 80 1013.7
20260509103102 9 144 0.0 1.6 0.00 0.05 0.05 79 1013.6
20260509101550 9 144 0.0 1.6 0.00 0.05 0.05 79 1013.4
20260509100049 9 150 0.0 1.6 0.00 0.05 0.05 79 1013.3
20260509094557 9 155 0.0 1.6 0.00 0.05 0.05 77 1013.5
20260509093048 9 155 0.0 1.6 0.00 0.05 0.05 77 1013.5
20260509091552 9 155 0.0 3.2 0.00 0.05 0.05 76 1013.6
20260509090054 9 155 0.0 1.6 0.00 0.05 0.05 76 1013.9
20260509084556 9 155 0.0 1.6 0.00 0.05 0.05 76 1014.0
20260509083052 9 155 1.6 3.2 0.00 0.05 0.05 77 1013.8
20260509081544 9 161 1.6 3.2 0.00 0.05 0.05 77 1014.0
20260509080048 9 158 1.6 3.2 0.00 0.05 0.05 76 1014.0
20260509074602 9 158 1.6 3.2 0.00 0.10 0.05 76 1013.9
20260509073100 9 151 1.6 3.2 0.00 0.10 0.05 77 1014.1
20260509071548 9 150 1.6 3.2 0.00 0.10 0.05 77 1014.1
20260509070044 9 150 0.0 3.2 0.00 0.10 0.05 78 1013.7
20260509064539 9 152 0.0 1.6 0.03 0.10 0.05 78 1013.7
20260509063053 8 155 0.0 1.6 0.03 0.10 0.05 80 1013.8
20260509061537 8 156 0.0 1.6 0.03 0.10 0.05 84 1014.4
20260509060044 8 156 0.0 3.2 0.03 0.10 0.05 83 1014.5
20260509054536 8 157 0.0 3.2 0.00 0.18 0.03 83 1014.7
20260509053049 8 164 1.6 3.2 0.03 0.18 0.03 83 1014.8
20260509051531 8 157 3.2 3.2 0.03 0.18 0.03 82 1014.8
20260509050030 8 152 0.0 3.2 0.03 0.18 0.03 81 1014.5
20260509044526 9 152 0.0 1.6 0.03 0.18 0.03 77 1014.8
20260509043038 9 152 0.0 3.2 0.00 0.15 0.00 76 1014.8
20260509041523 9 161 0.0 3.2 0.00 0.15 0.00 76 1015.0
20260509040021 9 166 1.6 3.2 0.00 0.15 0.00 77 1014.9
20260509034520 9 155 1.6 3.2 0.00 0.15 0.15 76 1014.9
20260509033020 9 156 0.0 3.2 0.00 0.15 0.15 76 1014.9
20260509031519 9 156 0.0 3.2 0.00 0.15 0.15 76 1015.1
20260509030020 9 158 0.0 3.2 0.00 0.15 0.15 77 1015.0
20260509024519 10 158 0.0 1.6 0.00 0.15 0.15 78 1015.1
20260509023017 10 307 0.0 0.0 0.00 0.15 0.15 74 1015.0
20260509021516 9 307 0.0 0.0 0.00 0.15 0.15 73 1014.9
20260509020015 9 307 0.0 0.0 0.00 0.15 0.15 73 1014.8
20260509014523 9 307 0.0 0.0 0.00 0.15 0.15 73 1014.5
20260509013014 9 307 0.0 0.0 0.00 0.15 0.15 73 1014.2
20260509011612 9 307 0.0 0.0 0.00 0.15 0.15 73 1014.1
20260509010011 9 307 0.0 0.0 0.00 0.15 0.15 75 1013.9
20260509004519 9 307 0.0 0.0 0.00 0.15 0.15 75 1013.5
20260509003012 9 307 0.0 0.0 0.00 0.15 0.15 76 1013.5
20260509001510 10 307 0.0 0.0 0.00 0.15 0.15 75 1013.3
20260509000010 10 307 0.0 0.0 0.00 0.15 0.15 73 1013.3
20260508234508 10 307 0.0 0.0 0.00 0.15 0.15 72 1013.4
20260508233009 11 307 0.0 0.0 0.00 0.15 0.15 70 1013.3
20260508231508 11 294 0.0 0.0 0.00 0.15 0.15 70 1013.3
20260508230008 11 294 0.0 0.0 0.00 0.15 0.15 69 1013.2
20260508224517 11 294 0.0 0.0 0.00 0.15 0.15 70 1013.1
20260508223006 11 295 0.0 1.6 0.00 0.15 0.15 69 1013.1
20260508221506 11 348 0.0 3.2 0.00 0.15 0.15 69 1013.1
20260508220006 11 335 0.0 0.0 0.00 0.15 0.15 71 1013.1
20260508214518 11 44 0.0 3.2 0.00 0.15 0.15 71 1013.2
20260508213004 10 345 0.0 3.2 0.00 0.15 0.15 74 1013.0
20260508211504 10 337 0.0 3.2 0.00 0.15 0.15 74 1013.0
20260508210004 10 55 0.0 1.6 0.00 0.15 0.15 78 1013.1
20260508204503 10 290 0.0 4.8 0.00 0.15 0.15 76 1013.5
20260508203002 10 11 0.0 9.7 0.00 0.15 0.15 74 1013.4
20260508201501 10 318 1.6 11.3 0.00 0.15 0.15 71 1013.1
20260508200004 11 320 3.2 11.3 0.00 0.15 0.15 70 1012.9
20260508194502 11 340 4.8 19.3 0.00 0.15 0.15 70 1013.0
20260508193120 11 299 6.4 19.3 0.00 0.15 0.15 70 1013.1
20260508191607 12 314 6.4 12.9 0.00 0.15 0.15 69 1013.2
20260508190112 11 59 4.8 14.5 0.00 0.15 0.15 70 1013.3
20260508184556 11 318 6.4 14.5 0.00 0.15 0.15 66 1013.5
20260508183059 10 22 1.6 11.3 0.00 0.15 0.15 66 1013.4
20260508181601 10 275 3.2 11.3 0.00 0.15 0.15 65 1013.4
20260508180058 10 333 3.2 9.7 0.00 0.15 0.15 66 1013.3
20260508174553 11 241 3.2 9.7 0.00 0.15 0.15 62 1013.0
20260508173052 11 236 3.2 12.9 0.00 0.15 0.15 64 1012.9
20260508171551 11 319 3.2 12.9 0.00 0.15 0.15 62 1013.3
20260508170057 11 288 3.2 8.0 0.00 0.15 0.15 59 1013.2
20260508164549 11 272 4.8 12.9 0.00 0.15 0.15 59 1013.3
20260508163059 11 217 4.8 11.3 0.00 0.15 0.15 63 1013.3
20260508161554 11 276 4.8 9.7 0.00 0.15 0.15 63 1013.5
20260508160043 10 282 6.4 11.3 0.00 0.15 0.15 59 1013.7
20260508154543 10 214 4.8 9.7 0.00 0.15 0.15 62 1013.9
20260508153054 10 243 4.8 12.9 0.00 0.15 0.15 66 1014.0
20260508151541 9 257 4.8 14.5 0.00 0.15 0.15 65 1014.1
20260508150040 10 308 1.6 6.4 0.00 0.15 0.15 64 1014.2
20260508144538 10 320 3.2 9.7 0.00 0.15 0.15 62 1014.1